Flag for U.S.A. Weather past 2 weeks in Rockford, Illinois, U.S.A.

Now
64 °F

Overcast.


Feels Like: 64 °F
Forecast: 57 / 72 °F
Wind: 13 mph from Northeast

Location: Greater Rockford Airport

Current Time: Jul 7, 2015 at 8:28:40 AM

Latest Report: Jul 7, 2015 at 7:54 AM


Visibility: 3 mi

Pressure: 29.98 "Hg

Humidity: 78%

Dew point: 57 °F

Location of RockfordLocation

Historic Weather in Rockford — Graph

°F

Rockford temperature yesterday

Maximum temperature yesterday: 81 °F (at 10:54 AM)
Minimum temperature yesterday: 66 °F (at 12:54 AM)
Average temperature yesterday: 73 °F

Past Weeks' High & Low Weather Summary

 TemperatureHumidityPressure
High83 °F (Jun 22, 5:54 PM)93% (Jun 24, 9:54 PM)30.17 "Hg (Jun 24, 9:54 PM)
Low51 °F (Jul 2, 3:54 AM)32% (Jun 27, 2:54 PM)29.72 "Hg (Jun 22, 3:54 PM)
Average69 °F73%29.96 "Hg
* Reported Jun 22 6:54 AM — Jul 7 6:54 AM, Rockford, Weather by CustomWeather, © 2015

Note: Actual official high and low records may vary slightly from our data, if they occured in-between our weather recording intervals... More about our weather records

Advertising

Rockford weather history for previous 24 hours

 ConditionsComfort  
Time TempWeatherWind HumidityBarometerVisibility
6:54 AM
Tue, Jul 7
63 °FCloudy.15 mph81%29.96 "Hg3 mi
5:54 AM63 °FMostly cloudy.13 mph81%29.94 "Hg3 mi
4:54 AM63 °FFog.18 mph84%29.91 "Hg4 mi
3:54 AM63 °FLight rain. Fog.14 mph87%29.90 "Hg3 mi
2:54 AM64 °FFog.15 mph87%29.88 "Hg4 mi
1:54 AM66 °FLight rain. Fog.16 mph90%29.85 "Hg4 mi
12:54 AM69 °FLight rain. Fog.17 mph87%29.85 "Hg5 mi
12:01 AM72 °FLight rain. Mostly cloudy.16 mph84%29.85 "Hg3 mi
10:54 PM
Mon, Jul 6
72 °FLight rain. Mostly cloudy.9 mph91%29.86 "Hg7 mi
9:54 PM72 °FLight rain. Mostly cloudy.13 mph84%29.86 "Hg5 mi
8:54 PM73 °FCloudy.8 mph84%29.85 "Hg10 mi
7:54 PM76 °FCloudy.7 mph77%29.82 "Hg10 mi
6:54 PM80 °FPartly sunny.12 mph71%29.80 "Hg10 mi
5:54 PM79 °FMostly cloudy.10 mph84%29.83 "Hg8 mi
4:54 PM78 °FLight rain. More clouds than sun.14 mph84%29.84 "Hg8 mi
3:54 PM77 °FLight rain. Cloudy.6 mph85%29.88 "Hg10 mi
2:54 PM76 °FLight rain. Cloudy.7 mph85%29.89 "Hg10 mi
1:54 PM75 °FOvercast.7 mph85%29.88 "Hg10 mi
12:54 PM72 °FThunderstorms. More clouds than sun.8 mph93%29.92 "Hg7 mi
11:54 AM75 °FLight rain. Mostly cloudy.13 mph85%29.95 "Hg5 mi
10:54 AM81 °FCloudy.16 mph72%29.93 "Hg8 mi
9:54 AM79 °FMore clouds than sun.12 mph74%29.93 "Hg7 mi
8:54 AM75 °FMore clouds than sun.13 mph79%29.94 "Hg6 mi
Weather by CustomWeather, © 2015

See weather overviewHow to use our weather pages